{"data":{"norad_id":66577,"epoch":"2026-09-20T21:28:35.815872Z","epoch_age_seconds":52312,"freshness":"FRESH","line1":"1 66577U 25268W   26263.89485898  .00010705  00000+0  39794-3 0  9999","line2":"2 66577  43.0028 324.6631 0001736 266.7860  93.2793 15.27582102 47813","mean_motion":15.27582102,"eccentricity":0.0001736,"inclination_deg":43.0028,"raan_deg":324.6631,"arg_perigee_deg":266.786,"mean_anomaly_deg":93.2793,"bstar":0.00039794,"rev_number":4781,"period_min":94.266618999703,"perigee_km":481.85170108907,"apogee_km":484.23390271629,"semimajor_km":6861.1798019027,"source":"CELESTRAK","updated_at":"2026-09-21T09:00:35.973648Z"}}